• In Germany
  • List of Countries
  • For 7 days
  • Water Temperature
  • Satellite Maps
  • Weather Map
  • Weather Widgets
  • user-avatar
    Login

    Hourly Weather Buy

    Today, 21 September, Friday

    Time Temperature Precipitation Wind Pressure Humidity
    00:00 +1°C° 0.7 mm 6 mps 702 mmHg 94%
    01:00 +1°C° 0 mm 5 mps 702 mmHg 93%
    02:00 +1°C° 0.4 mm 5 mps 702 mmHg 94%
    03:00 +1°C° 0.4 mm 5 mps 703 mmHg 94%
    04:00 +1°C° 0.4 mm 5 mps 703 mmHg 95%
    05:00 +1°C° 0.4 mm 4 mps 704 mmHg 95%
    06:00 +1°C° 0.4 mm 4 mps 704 mmHg 96%
    07:00 +1°C° 0.4 mm 4 mps 704 mmHg 97%
    08:00 +1°C° 0.3 mm 4 mps 705 mmHg 97%
    09:00 +1°C° 0.3 mm 4 mps 705 mmHg 97%
    10:00 +3°C° 0.3 mm 4 mps 706 mmHg 97%
    11:00 +3°C° 0.1 mm 4 mps 706 mmHg 97%
    12:00 +3°C° 0.1 mm 4 mps 706 mmHg 97%
    13:00 +6°C° 0 mm 5 mps 706 mmHg 79%
    14:00 +6°C° 0.1 mm 5 mps 706 mmHg 79%
    15:00 +6°C° 0.1 mm 4 mps 707 mmHg 79%
    16:00 +6°C° 0.1 mm 4 mps 707 mmHg 79%
    17:00 +5°C° 0 mm 3 mps 707 mmHg 82%
    18:00 +4°C° 0 mm 3 mps 707 mmHg 85%
    19:00 +4°C° 0 mm 2 mps 707 mmHg 89%
    20:00 +4°C° 0.1 mm 2 mps 707 mmHg 90%
    21:00 +3°C° 0.1 mm 2 mps 708 mmHg 91%
    22:00 +3°C° 0.1 mm 2 mps 708 mmHg 92%
    23:00 +3°C° 0.1 mm 2 mps 708 mmHg 93%

    Tomorrow, 22 September, Saturday

    Time Temperature Precipitation Wind Pressure Humidity
    00:00 +4°C° 0.1 mm 1 mps 708 mmHg 93%
    01:00 +4°C° 0.1 mm 1 mps 708 mmHg 94%
    02:00 +4°C° 0.1 mm 1 mps 709 mmHg 94%
    03:00 +4°C° 0.1 mm 1 mps 709 mmHg 94%
    04:00 +4°C° 0.1 mm 1 mps 709 mmHg 95%
    05:00 +4°C° 0 mm 1 mps 710 mmHg 94%
    06:00 +4°C° 0 mm 1 mps 710 mmHg 92%
    07:00 +4°C° 0 mm 1 mps 710 mmHg 91%
    08:00 +6°C° 0 mm 1 mps 710 mmHg 87%
    09:00 +8°C° 0 mm 1 mps 711 mmHg 82%
    10:00 +9°C° 0 mm 1 mps 711 mmHg 78%
    11:00 +9°C° 0 mm 2 mps 711 mmHg 75%
    12:00 +10°C° 0 mm 2 mps 711 mmHg 73%
    13:00 +12°C° 0 mm 2 mps 711 mmHg 71%
    14:00 +12°C° 0 mm 2 mps 711 mmHg 71%
    15:00 +12°C° 0 mm 1 mps 710 mmHg 71%
    16:00 +12°C° 0 mm 1 mps 710 mmHg 71%
    17:00 +10°C° 0 mm 1 mps 710 mmHg 76%
    18:00 +8°C° 0 mm 1 mps 710 mmHg 80%
    19:00 +6°C° 0 mm 1 mps 710 mmHg 85%
    20:00 +6°C° 0 mm 1 mps 711 mmHg 86%
    21:00 +5°C° 0 mm 1 mps 711 mmHg 87%
    22:00 +5°C° 0 mm 1 mps 711 mmHg 88%
    23:00 +5°C° 0 mm 1 mps 711 mmHg 89%

    Day after tomorrow, 23 September, Sunday

    Time Temperature Precipitation Wind Pressure Humidity
    00:00 +4°C° 0 mm 1 mps 711 mmHg 90%
    01:00 +4°C° 0 mm 1 mps 711 mmHg 90%
    02:00 +4°C° 0 mm 1 mps 711 mmHg 91%
    03:00 +4°C° 0 mm 1 mps 711 mmHg 91%
    04:00 +3°C° 0 mm 1 mps 711 mmHg 92%
    05:00 +4°C° 0 mm 1 mps 711 mmHg 90%
    06:00 +5°C° 0 mm 1 mps 711 mmHg 88%
    07:00 +5°C° 0 mm 1 mps 711 mmHg 86%
    08:00 +8°C° 0 mm 1 mps 711 mmHg 80%
    09:00 +10°C° 0 mm 1 mps 711 mmHg 74%
    10:00 +12°C° 0 mm 2 mps 710 mmHg 68%
    11:00 +13°C° 0 mm 2 mps 710 mmHg 65%
    12:00 +14°C° 0 mm 2 mps 709 mmHg 61%
    13:00 +15°C° 0 mm 2 mps 709 mmHg 57%
    14:00 +15°C° 0 mm 2 mps 708 mmHg 59%
    15:00 +15°C° 0 mm 1 mps 708 mmHg 61%
    16:00 +15°C° 0 mm 1 mps 708 mmHg 63%
    17:00 +12°C° 0 mm 1 mps 708 mmHg 70%
    18:00 +10°C° 0 mm 1 mps 708 mmHg 78%
    19:00 +8°C° 0 mm 1 mps 708 mmHg 85%
    20:00 +7°C° 0 mm 1 mps 708 mmHg 87%
    21:00 +7°C° 0 mm 1 mps 708 mmHg 89%
    22:00 +5°C° 0 mm 2 mps 708 mmHg 90%
    23:00 +5°C° 0 mm 2 mps 708 mmHg 91%

    24 September, Monday

    Time Temperature Precipitation Wind Pressure Humidity
    00:00 +4°C° 0 mm 2 mps 708 mmHg 91%
    01:00 +4°C° 0 mm 2 mps 707 mmHg 92%
    02:00 +4°C° 0 mm 2 mps 707 mmHg 92%
    03:00 +3°C° 0 mm 2 mps 707 mmHg 92%
    04:00 +4°C° 0 mm 1 mps 707 mmHg 92%
    05:00 +5°C° 0 mm 1 mps 707 mmHg 89%
    06:00 +5°C° 0 mm 1 mps 707 mmHg 86%
    07:00 +6°C° 0 mm 1 mps 707 mmHg 83%
    08:00 +8°C° 0 mm 1 mps 706 mmHg 76%
    09:00 +10°C° 0 mm 1 mps 706 mmHg 69%
    10:00 +13°C° 0 mm 1 mps 706 mmHg 63%
    11:00 +14°C° 0 mm 1 mps 705 mmHg 59%
    12:00 +15°C° 0 mm 1 mps 705 mmHg 56%
    13:00 +16°C° 0 mm 1 mps 705 mmHg 52%
    14:00 +16°C° 0 mm 1 mps 704 mmHg 56%
    15:00 +15°C° 0 mm 1 mps 704 mmHg 59%
    16:00 +15°C° 0 mm 1 mps 704 mmHg 62%
    17:00 +13°C° 0 mm 1 mps 704 mmHg 69%
    18:00 +11°C° 0 mm 1 mps 704 mmHg 76%
    19:00 +9°C° 0 mm 1 mps 704 mmHg 83%
    20:00 +9°C° 0 mm 1 mps 704 mmHg 85%
    21:00 +8°C° 0 mm 1 mps 704 mmHg 86%
    22:00 +8°C° 0 mm 1 mps 704 mmHg 88%
    23:00 +8°C° 0 mm 1 mps 704 mmHg 89%

    25 September, Tuesday

    Time Temperature Precipitation Wind Pressure Humidity
    00:00 +7°C° 0 mm 1 mps 704 mmHg 90%
    01:00 +7°C° 0 mm 1 mps 704 mmHg 90%
    02:00 +7°C° 0 mm 1 mps 704 mmHg 91%
    03:00 +6°C° 0 mm 1 mps 704 mmHg 91%
    04:00 +6°C° 0 mm 1 mps 703 mmHg 92%
    05:00 +7°C° 0 mm 1 mps 704 mmHg 89%
    06:00 +7°C° 0 mm 1 mps 704 mmHg 87%
    07:00 +8°C° 0 mm 1 mps 704 mmHg 84%
    08:00 +11°C° 0 mm 1 mps 704 mmHg 76%
    09:00 +13°C° 0 mm 1 mps 703 mmHg 67%
    10:00 +16°C° 0 mm 1 mps 703 mmHg 59%
    11:00 +18°C° 0 mm 1 mps 703 mmHg 55%
    12:00 +19°C° 0 mm 1 mps 702 mmHg 52%
    13:00 +20°C° 0 mm 1 mps 702 mmHg 48%
    14:00 +20°C° 0 mm 1 mps 702 mmHg 52%
    15:00 +19°C° 0 mm 1 mps 701 mmHg 56%
    16:00 +19°C° 0 mm 1 mps 701 mmHg 59%
    17:00 +16°C° 0 mm 1 mps 701 mmHg 65%
    18:00 +14°C° 0 mm 1 mps 701 mmHg 71%
    19:00 +13°C° 0 mm 1 mps 701 mmHg 77%
    20:00 +12°C° 0 mm 1 mps 701 mmHg 79%
    21:00 +12°C° 0 mm 1 mps 701 mmHg 81%
    22:00 +11°C° 0 mm 1 mps 700 mmHg 83%
    23:00 +11°C° 0 mm 1 mps 700 mmHg 85%

    26 September, Wednesday

    Time Temperature Precipitation Wind Pressure Humidity
    00:00 +11°C° 0 mm 1 mps 700 mmHg 86%
    01:00 +10°C° 0 mm 1 mps 700 mmHg 87%
    02:00 +10°C° 0 mm 1 mps 700 mmHg 88%
    03:00 +10°C° 0 mm 1 mps 700 mmHg 89%
    04:00 +9°C° 0 mm 1 mps 700 mmHg 90%
    05:00 +10°C° 0 mm 1 mps 700 mmHg 89%
    06:00 +9°C° 0 mm 0 mps 700 mmHg 87%
    07:00 +9°C° 0 mm 0 mps 700 mmHg 86%
    08:00 +12°C° 0 mm 1 mps 700 mmHg 79%
    09:00 +14°C° 0 mm 1 mps 701 mmHg 73%
    10:00 +16°C° 0 mm 1 mps 701 mmHg 66%
    11:00 +15°C° 0.1 mm 2 mps 701 mmHg 68%
    12:00 +15°C° 0.1 mm 2 mps 700 mmHg 69%
    13:00 +15°C° 0.1 mm 2 mps 700 mmHg 71%
    14:00 +15°C° 0.1 mm 2 mps 700 mmHg 73%
    15:00 +14°C° 0.1 mm 2 mps 700 mmHg 75%
    16:00 +14°C° 0.1 mm 2 mps 701 mmHg 77%
    17:00 +13°C° 0 mm 2 mps 701 mmHg 81%
    18:00 +10°C° 0 mm 2 mps 701 mmHg 86%
    19:00 +10°C° 0 mm 1 mps 701 mmHg 90%
    20:00 +10°C° 0 mm 1 mps 702 mmHg 91%
    21:00 +9°C° 0 mm 1 mps 702 mmHg 92%
    22:00 +8°C° 0 mm 1 mps 702 mmHg 94%
    23:00 +8°C° 0 mm 1 mps 702 mmHg 94%
    Show more